Location: Follega
(52.8850°N, 5.7362°E)
Time: 04:10:28
(UTC+00:00)

Cosmos 2297 Rocket - Pass Details

Date: 04 October 2020
Orbit: 838 x 845 km, 71.0° (Epoch: 26 October)

Event Time Altitude Azimuth Distance (km) Brightness Sun altitude
Rises 20:18:52 0° 327° (NNW) 3,416 6.4 -28.6°
Reaches altitude 10° 20:21:46 10° 340° (NNW) 2,479 5.3 -29.0°
Enters shadow 20:26:10 25° 31° (NNE) 1,639 3.7 -29.5°
